Regional Weather Roundup
Issued by NWS Raleigh/Durham, NC

Home | Current Version | Previous Version | Text Only | Print | Product List | Glossary On
Versions: 1 2 3 4 5 6 7 8 9 10 11 12 13 14 15 16 17 18 19 20 21 22 23 24 25 26 27
000
ASUS42 KRAH 201310
RWRRAH
NORTH CAROLINA WEATHER ROUNDUP
NATIONAL WEATHER SERVICE RALEIGH NC
900 AM EDT THU JUL 20 2017

NOTE: "FAIR" INDICATES FEW OR NO CLOUDS BELOW 12,000 FEET WITH NO
SIGNIFICANT WEATHER AND/OR OBSTRUCTIONS TO VISIBILITY.

NCZ001-053-055-056-065-067-201400-
WESTERN NORTH CAROLINA

CITY           SKY/WX    TMP DP  RH WIND       PRES   REMARKS
ASHEVILLE      SUNNY     71  66  84 NW7       30.21R
JEFFERSON      SUNNY     70  65  85 CALM      30.25R
MORGANTON      SUNNY     74  68  79 CALM      30.18R
HICKORY        SUNNY     77  72  84 N3        30.12S
RUTHERFORDTON  SUNNY     75  71  86 CALM      30.13R
MOUNT AIRY     SUNNY     77  71  80 CALM      30.14S
BOONE          SUNNY     73  62  68 W8        30.26R
$$

NCZ021-022-025-041-071-084-088-201400-
CENTRAL NORTH CAROLINA

CITY           SKY/WX    TMP DP  RH WIND       PRES   REMARKS
CHARLOTTE      MOSUNNY   80  72  76 NW3       30.11R
GREENSBORO     MOSUNNY   82  72  71 NW6       30.10R
WINSTON-SALEM  SUNNY     80  67  64 CALM      30.11S
RALEIGH-DURHAM MOSUNNY   82  73  74 W3        30.08S
FORT BRAGG     SUNNY     83  71  68 NW8       30.07R
FAYETTEVILLE   SUNNY     83  72  69 W5        30.07S
BURLINGTON     SUNNY     80  73  79 SW3       30.08S
LAURINBURG     SUNNY     80  74  81 W5        30.09S
$$

NCZ011-015-027-028-043-044-047-080-103-201400-
NORTHEASTERN NORTH CAROLINA

CITY           SKY/WX    TMP DP  RH WIND       PRES   REMARKS
ROCKY MT-WILSO SUNNY     79  74  84 SW3       30.07S
GREENVILLE     SUNNY     79  72  78 SW3       30.08S
WASHINGTON     SUNNY     79  72  77 CALM      30.07S
ELIZABETH CITY SUNNY     81  76  84 SW3       30.06S
MANTEO         SUNNY     79  74  86 W3        30.08R
CAPE HATTERAS  MOSUNNY   82  73  74 CALM      30.07S
$$

NCZ078-087-090-091-093-098-101-201400-
SOUTHEASTERN NORTH CAROLINA

CITY           SKY/WX    TMP DP  RH WIND       PRES   REMARKS
LUMBERTON      SUNNY     78  72  81 CALM      30.07F
GOLDSBORO      SUNNY     78  78  98 CALM      30.06S
KINSTON        SUNNY     79  72  78 CALM      30.08S
KENANSVILLE    MOSUNNY   79  72  78 CALM      30.08S
NEW BERN       SUNNY     79  73  82 VRB3      30.09S
CHERRY POINT   SUNNY     80  73  79 NW3       30.08S
BEAUFORT       SUNNY     81  74  79 NW6       30.07S
JACKSONVILLE   MOSUNNY   79  75  87 W5        30.07S
WILMINGTON     SUNNY     79  71  76 NW6       30.08R
$$





USA.gov is the U.S. government's official web portal to all federal, state and local government web resources and services.